QPF
0.18 0.18 0.23 0.18 0.09 0.05 0.04 0.02 0.01 0.01 0.02 0.03 0.02 0.02 0.02 0.01 0.01 0.00 0.00 0.00 0.00 0.00 0.00 0.00 0.00 0.00 0.00 0.00 0.00 0.00 0.00 0.00 0.00 0.00 0.00 0.00 0.00 0.00 0.00 0.00 0.00 0.00 0.00 0.00
0.29 0.20 0.16 0.12 0.05 0.03 0.03 0.02 0.02 0.02 0.03 0.02 0.02 0.01 0.01 0.01 0.00 0.00 0.00 0.00 0.00 0.00 0.00 0.00 0.00 0.00 0.00 0.00 0.00 0.00 0.00 0.00 0.00 0.00 0.00 0.00 0.00 0.00 0.00 0.00 0.00 0.00 0.00 0.00
0.33 0.22 0.18 0.13 0.06 0.04 0.04 0.03 0.02 0.02 0.02 0.01 0.01 0.01 0.00 0.00 0.00 0.00 0.00 0.00 0.00 0.00 0.00 0.00 0.00 0.00 0.00 0.00 0.00 0.00 0.00 0.00 0.00 0.00 0.00 0.00 0.00 0.00 0.00 0.00 0.00 0.00 0.00 0.00
0.30 0.31 0.27 0.15 0.08 0.07 0.08 0.05 0.03 0.02 0.01 0.01 0.01 0.01 0.01 0.01 0.00 0.00 0.00 0.00 0.00 0.00 0.00 0.00 0.00 0.00 0.00 0.00 0.00 0.00 0.00 0.00 0.00 0.00 0.00 0.00 0.00 0.00 0.00 0.00 0.00 0.00 0.00 0.00
0.15 0.15 0.10 0.05 0.05 0.05 0.06 0.04 0.02 0.02 0.01 0.00 0.01 0.01 0.01 0.01 0.01 0.00 0.00 0.00 0.00 0.00 0.00 0.00 0.00 0.00 0.00 0.00 0.00 0.00 0.00 0.00 0.00 0.00 0.00 0.00 0.00 0.00 0.00 0.00 0.00 0.00 0.00 0.00
0.02 0.02 0.02 0.01 0.01 0.01 0.01 0.01 0.00 0.00 0.00 0.00 0.00 0.01 0.01 0.01 0.01 0.00 0.00 0.00 0.00 0.00 0.00 0.00 0.00 0.00 0.00 0.00 0.00 0.00 0.00 0.00 0.00 0.00 0.00 0.00 0.00 0.00 0.00 0.00 0.00 0.00 0.00 0.00
0.00 0.00 0.00 0.00 0.00 0.00 0.00 0.00 0.00 0.00 0.00 0.00 0.00 0.01 0.01 0.01 0.01 0.00 0.00 0.00 0.00 0.00 0.00 0.00 0.00 0.00 0.00 0.00 0.00 0.00 0.00 0.00 0.00 0.00 0.00 0.00 0.00 0.00 0.00 0.00 0.00 0.00 0.00 0.00
0.00 0.00 0.00 0.00 0.00 0.00 0.00 0.00 0.00 0.00 0.00 0.00 0.00 0.00 0.00 0.00 0.00 0.00 0.00 0.00 0.00 0.00 0.00 0.00 0.00 0.00 0.00 0.00 0.00 0.00 0.00 0.00 0.00 0.00 0.00 0.00 0.00 0.00 0.00 0.00 0.00 0.00 0.00 0.00
0.00 0.00 0.00 0.00 0.00 0.00 0.00 0.00 0.00 0.00 0.00 0.00 0.00 0.00 0.00 0.00 0.00 0.00 0.00 0.00 0.00 0.00 0.00 0.00 0.00 0.00 0.00 0.00 0.00 0.00 0.00 0.00 0.00 0.00 0.00 0.00 0.00 0.00 0.00 0.00 0.00 0.00 0.00 0.00
0.00 0.00 0.00 0.00 0.00 0.00 0.00 0.00 0.00 0.00 0.00 0.00 0.00 0.00 0.00 0.00 0.00 0.00 0.00 0.00 0.00 0.00 0.00 0.00 0.00 0.00 0.00 0.00 0.00 0.00 0.00 0.00 0.00 0.00 0.00 0.00 0.00 0.00 0.00 0.00 0.00 0.00 0.00 0.00
0.00 0.00 0.00 0.00 0.00 0.00 0.00 0.00 0.00 0.00 0.00 0.00 0.00 0.00 0.00 0.00 0.00 0.00 0.00 0.00 0.00 0.00 0.00 0.00 0.00 0.00 0.00 0.00 0.00 0.00 0.00 0.00 0.00 0.00 0.00 0.00 0.00 0.00 0.00 0.00 0.00 0.00 0.00 0.00
0.00 0.00 0.00 0.00 0.00 0.00 0.00 0.00 0.00 0.00 0.00 0.00 0.00 0.00 0.00 0.00 0.00 0.00 0.00 0.00 0.00 0.00 0.00 0.00 0.00 0.00 0.00 0.00 0.00 0.00 0.00 0.00 0.00 0.00 0.00 0.00 0.00 0.00 0.00 0.00 0.00 0.00 0.00 0.00
0.00 0.00 0.00 0.00 0.00 0.00 0.00 0.00 0.00 0.00 0.00 0.00 0.00 0.00 0.00 0.00 0.00 0.00 0.00 0.00 0.00 0.00 0.00 0.00 0.00 0.00 0.00 0.00 0.00 0.00 0.00 0.00 0.00 0.00 0.00 0.00 0.00 0.00 0.00 0.00 0.00 0.00 0.00 0.00
0.00 0.00 0.00 0.00 0.00 0.00 0.00 0.00 0.00 0.00 0.00 0.00 0.00 0.00 0.00 0.00 0.00 0.00 0.00 0.00 0.00 0.00 0.00 0.00 0.00 0.00 0.00 0.00 0.00 0.00 0.00 0.00 0.00 0.00 0.00 0.00 0.00 0.00 0.00 0.00 0.00 0.00 0.00 0.00
0.00 0.00 0.00 0.00 0.00 0.00 0.00 0.00 0.00 0.00 0.00 0.00 0.00 0.00 0.00 0.00 0.00 0.00 0.00 0.00 0.00 0.00 0.00 0.00 0.00 0.00 0.00 0.00 0.00 0.00 0.00 0.00 0.00 0.00 0.00 0.00 0.00 0.00 0.00 0.00 0.00 0.00 0.00 0.00
0.00 0.00 0.00 0.00 0.00 0.00 0.00 0.00 0.00 0.00 0.00 0.00 0.00 0.00 0.00 0.00 0.00 0.00 0.00 0.00 0.00 0.00 0.00 0.00 0.00 0.00 0.00 0.00 0.00 0.00 0.00 0.00 0.00 0.00 0.00 0.00 0.00 0.00 0.00 0.00 0.00 0.00 0.00 0.00
0.00 0.00 0.00 0.00 0.00 0.00 0.00 0.00 0.00 0.00 0.00 0.00 0.00 0.00 0.00 0.00 0.00 0.00 0.00 0.00 0.00 0.00 0.00 0.00 0.00 0.00 0.00 0.00 0.00 0.00 0.00 0.00 0.00 0.00 0.00 0.00 0.00 0.00 0.00 0.00 0.00 0.00 0.00 0.00
0.00 0.00 0.00 0.00 0.00 0.00 0.00 0.00 0.00 0.00 0.00 0.00 0.00 0.00 0.00 0.00 0.00 0.00 0.00 0.00 0.00 0.00 0.00 0.00 0.00 0.00 0.00 0.00 0.00 0.00 0.00 0.00 0.00 0.00 0.00 0.00 0.00 0.00 0.00 0.00 0.00 0.00 0.00 0.00
0.00 0.00 0.00 0.00 0.00 0.00 0.00 0.00 0.00 0.00 0.00 0.00 0.00 0.00 0.00 0.00 0.00 0.00 0.00 0.00 0.00 0.00 0.00 0.00 0.00 0.00 0.00 0.00 0.00 0.00 0.00 0.00 0.00 0.00 0.00 0.00 0.00 0.00 0.00 0.00 0.00 0.00 0.00 0.00
0.00 0.00 0.00 0.00 0.00 0.00 0.00 0.00 0.00 0.00 0.00 0.00 0.00 0.00 0.00 0.00 0.00 0.00 0.00 0.00 0.00 0.00 0.00 0.00 0.00 0.00 0.00 0.00 0.00 0.00 0.00 0.00 0.00 0.00 0.00 0.00 0.00 0.00 0.00 0.00 0.00 0.00 0.00 0.00
0.00 0.00 0.00 0.00 0.00 0.00 0.00 0.00 0.00 0.00 0.00 0.00 0.00 0.00 0.00 0.00 0.00 0.00 0.00 0.00 0.00 0.00 0.00 0.00 0.00 0.00 0.00 0.00 0.00 0.00 0.00 0.00 0.00 0.00 0.00 0.00 0.00 0.00 0.00 0.00 0.00 0.00 0.00 0.00
0.00 0.00 0.00 0.00 0.00 0.00 0.00 0.00 0.00 0.00 0.00 0.00 0.00 0.00 0.00 0.00 0.00 0.00 0.00 0.00 0.00 0.00 0.00 0.00 0.00 0.00 0.00 0.00 0.00 0.00 0.00 0.00 0.00 0.00 0.00 0.00 0.00 0.00 0.00 0.00 0.00 0.00 0.00 0.00
0.00 0.00 0.00 0.00 0.00 0.00 0.00 0.00 0.00 0.00 0.00 0.00 0.00 0.00 0.00 0.00 0.00 0.00 0.00 0.00 0.00 0.00 0.00 0.00 0.00 0.00 0.00 0.00 0.00 0.00 0.00 0.00 0.00 0.00 0.00 0.00 0.00 0.00 0.00 0.00 0.00 0.00 0.00 0.00
0.00 0.00 0.00 0.00 0.00 0.00 0.00 0.00 0.00 0.00 0.00 0.00 0.00 0.00 0.00 0.00 0.00 0.00 0.00 0.00 0.00 0.00 0.00 0.00 0.00 0.00 0.00 0.00 0.00 0.00 0.00 0.00 0.00 0.00 0.00 0.00 0.00 0.00 0.00 0.00 0.00 0.00 0.00 0.00
0.00 0.00 0.00 0.00 0.00 0.00 0.00 0.00 0.00 0.00 0.00 0.00 0.00 0.00 0.00 0.00 0.00 0.00 0.00 0.00 0.00 0.00 0.00 0.00 0.00 0.00 0.00 0.00 0.00 0.00 0.00 0.00 0.00 0.00 0.00 0.00 0.00 0.00 0.00 0.00 0.00 0.00 0.00 0.00
0.00 0.00 0.00 0.00 0.00 0.00 0.00 0.00 0.00 0.00 0.00 0.00 0.00 0.00 0.00 0.00 0.00 0.00 0.00 0.00 0.00 0.00 0.00 0.00 0.00 0.00 0.00 0.00 0.00 0.00 0.00 0.00 0.00 0.00 0.00 0.00 0.00 0.00 0.00 0.00 0.00 0.00 0.00 0.00
0.00 0.00 0.00 0.00 0.00 0.00 0.00 0.00 0.00 0.00 0.00 0.00 0.00 0.00 0.00 0.00 0.00 0.00 0.00 0.00 0.00 0.00 0.00 0.00 0.00 0.00 0.00 0.00 0.00 0.00 0.00 0.00 0.00 0.00 0.00 0.00 0.00 0.00 0.00 0.00 0.00 0.00 0.00 0.00
MSLP
1007.16 1006.80 1006.47 1006.18 1005.94 1005.72 1005.50 1005.22 1004.86 1004.42 1003.88 1003.30 1002.71 1002.19 1001.79 1001.60 1001.64 1001.92 1002.46 1003.21 1004.14 1005.18 1006.28 1007.39 1008.47 1009.51 1010.50 1011.42 1012.30 1013.14 1013.94 1014.70 1015.42 1016.11 1016.74 1017.31 1017.82 1018.26 1018.63 1018.92 1019.14 1019.28 1019.34 1019.34
1006.10 1005.64 1005.18 1004.76 1004.39 1004.09 1003.82 1003.57 1003.32 1003.04 1002.72 1002.39 1002.07 1001.81 1001.64 1001.62 1001.78 1002.14 1002.70 1003.45 1004.36 1005.38 1006.47 1007.59 1008.70 1009.77 1010.80 1011.77 1012.68 1013.54 1014.34 1015.10 1015.80 1016.46 1017.06 1017.60 1018.07 1018.48 1018.82 1019.07 1019.25 1019.35 1019.38 1019.33
1005.13 1004.55 1003.97 1003.41 1002.93 1002.54 1002.24 1002.02 1001.87 1001.76 1001.66 1001.59 1001.53 1001.52 1001.57 1001.72 1002.00 1002.43 1003.02 1003.76 1004.64 1005.64 1006.70 1007.81 1008.93 1010.03 1011.08 1012.08 1013.02 1013.89 1014.70 1015.45 1016.14 1016.78 1017.36 1017.88 1018.33 1018.72 1019.03 1019.26 1019.41 1019.47 1019.45 1019.35
1004.33 1003.65 1002.94 1002.26 1001.67 1001.21 1000.90 1000.72 1000.67 1000.72 1000.83 1001.00 1001.19 1001.41 1001.67 1001.98 1002.37 1002.86 1003.47 1004.20 1005.05 1006.01 1007.04 1008.13 1009.23 1010.33 1011.39 1012.40 1013.35 1014.23 1015.04 1015.78 1016.46 1017.08 1017.65 1018.15 1018.60 1018.97 1019.26 1019.47 1019.59 1019.61 1019.54 1019.40
1003.76 1002.98 1002.17 1001.39 1000.72 1000.22 999.90 999.77 999.83 1000.03 1000.34 1000.72 1001.13 1001.57 1002.01 1002.46 1002.96 1003.50 1004.12 1004.83 1005.65 1006.55 1007.54 1008.59 1009.66 1010.74 1011.79 1012.79 1013.73 1014.60 1015.39 1016.12 1016.78 1017.39 1017.94 1018.43 1018.86 1019.22 1019.49 1019.68 1019.76 1019.75 1019.63 1019.42
1003.39 1002.55 1001.66 1000.83 1000.12 999.60 999.30 999.24 999.40 999.74 1000.22 1000.79 1001.40 1002.01 1002.60 1003.18 1003.75 1004.34 1004.97 1005.66 1006.44 1007.30 1008.23 1009.23 1010.26 1011.29 1012.31 1013.28 1014.19 1015.03 1015.79 1016.49 1017.13 1017.71 1018.23 1018.70 1019.11 1019.44 1019.70 1019.85 1019.90 1019.84 1019.67 1019.40
1003.18 1002.31 1001.41 1000.56 999.86 999.36 999.11 999.13 999.39 999.86 1000.48 1001.20 1001.96 1002.71 1003.43 1004.10 1004.74 1005.36 1005.99 1006.67 1007.41 1008.22 1009.10 1010.04 1011.01 1011.99 1012.96 1013.88 1014.74 1015.53 1016.25 1016.91 1017.50 1018.04 1018.53 1018.96 1019.34 1019.64 1019.85 1019.97 1019.97 1019.86 1019.63 1019.30
1003.04 1002.19 1001.33 1000.53 999.88 999.45 999.28 999.38 999.74 1000.32 1001.05 1001.89 1002.75 1003.61 1004.41 1005.15 1005.84 1006.49 1007.13 1007.79 1008.50 1009.27 1010.10 1010.98 1011.89 1012.82 1013.72 1014.58 1015.37 1016.11 1016.77 1017.36 1017.90 1018.39 1018.82 1019.21 1019.53 1019.78 1019.95 1020.01 1019.96 1019.79 1019.51 1019.12
1002.89 1002.12 1001.35 1000.66 1000.11 999.79 999.72 999.92 1000.37 1001.03 1001.85 1002.76 1003.69 1004.61 1005.47 1006.26 1006.98 1007.65 1008.30 1008.95 1009.64 1010.38 1011.17 1012.00 1012.85 1013.71 1014.54 1015.33 1016.06 1016.72 1017.31 1017.83 1018.31 1018.73 1019.10 1019.42 1019.69 1019.88 1019.98 1019.98 1019.87 1019.65 1019.31 1018.88
1002.65 1002.03 1001.41 1000.87 1000.48 1000.29 1000.35 1000.64 1001.18 1001.90 1002.76 1003.71 1004.68 1005.63 1006.51 1007.33 1008.08 1008.77 1009.43 1010.09 1010.77 1011.49 1012.24 1013.02 1013.82 1014.61 1015.37 1016.08 1016.74 1017.32 1017.84 1018.29 1018.69 1019.04 1019.35 1019.60 1019.80 1019.92 1019.96 1019.90 1019.73 1019.45 1019.06 1018.59
1002.33 1001.88 1001.46 1001.11 1000.90 1000.88 1001.06 1001.46 1002.06 1002.83 1003.71 1004.67 1005.64 1006.59 1007.49 1008.32 1009.08 1009.80 1010.48 1011.15 1011.83 1012.54 1013.26 1014.00 1014.74 1015.47 1016.16 1016.79 1017.37 1017.87 1018.31 1018.70 1019.03 1019.32 1019.56 1019.74 1019.87 1019.93 1019.90 1019.77 1019.55 1019.22 1018.80 1018.30
1001.93 1001.69 1001.48 1001.35 1001.35 1001.49 1001.81 1002.31 1002.96 1003.75 1004.64 1005.58 1006.54 1007.47 1008.37 1009.20 1009.98 1010.72 1011.42 1012.11 1012.80 1013.50 1014.20 1014.90 1015.58 1016.24 1016.85 1017.41 1017.91 1018.34 1018.71 1019.03 1019.30 1019.53 1019.71 1019.84 1019.91 1019.91 1019.82 1019.64 1019.37 1019.00 1018.55 1018.04
1001.50 1001.48 1001.50 1001.60 1001.79 1002.11 1002.56 1003.14 1003.84 1004.64 1005.52 1006.43 1007.36 1008.28 1009.16 1009.99 1010.79 1011.55 1012.28 1012.99 1013.68 1014.37 1015.04 1015.70 1016.32 1016.91 1017.44 1017.92 1018.34 1018.71 1019.02 1019.29 1019.51 1019.69 1019.83 1019.91 1019.94 1019.89 1019.75 1019.53 1019.22 1018.82 1018.35 1017.84
1001.13 1001.32 1001.56 1001.86 1002.25 1002.72 1003.28 1003.94 1004.67 1005.48 1006.34 1007.23 1008.13 1009.02 1009.89 1010.73 1011.54 1012.32 1013.07 1013.79 1014.49 1015.16 1015.80 1016.40 1016.96 1017.47 1017.93 1018.34 1018.69 1018.99 1019.25 1019.47 1019.66 1019.81 1019.91 1019.97 1019.96 1019.88 1019.71 1019.45 1019.11 1018.69 1018.21 1017.69
1000.87 1001.24 1001.68 1002.17 1002.72 1003.32 1003.99 1004.71 1005.48 1006.29 1007.13 1008.00 1008.87 1009.74 1010.61 1011.45 1012.27 1013.06 1013.82 1014.55 1015.24 1015.89 1016.48 1017.03 1017.52 1017.96 1018.34 1018.67 1018.96 1019.21 1019.43 1019.62 1019.78 1019.91 1019.99 1020.03 1019.99 1019.89 1019.69 1019.41 1019.05 1018.62 1018.13 1017.60
1000.78 1001.30 1001.89 1002.53 1003.22 1003.93 1004.68 1005.45 1006.25 1007.06 1007.90 1008.75 1009.60 1010.47 1011.32 1012.17 1012.99 1013.80 1014.56 1015.28 1015.95 1016.56 1017.12 1017.60 1018.03 1018.39 1018.70 1018.97 1019.20 1019.41 1019.59 1019.76 1019.90 1020.01 1020.09 1020.10 1020.05 1019.92 1019.71 1019.41 1019.03 1018.58 1018.08 1017.56
1000.87 1001.50 1002.21 1002.97 1003.75 1004.55 1005.36 1006.18 1007.00 1007.82 1008.66 1009.50 1010.35 1011.20 1012.05 1012.90 1013.73 1014.53 1015.28 1015.99 1016.63 1017.20 1017.70 1018.13 1018.49 1018.79 1019.04 1019.26 1019.44 1019.61 1019.77 1019.92 1020.05 1020.15 1020.20 1020.20 1020.13 1019.98 1019.74 1019.42 1019.02 1018.57 1018.07 1017.54
1001.14 1001.85 1002.64 1003.47 1004.32 1005.19 1006.04 1006.89 1007.73 1008.57 1009.41 1010.25 1011.09 1011.94 1012.79 1013.64 1014.46 1015.24 1015.98 1016.66 1017.27 1017.79 1018.24 1018.62 1018.92 1019.17 1019.38 1019.55 1019.70 1019.85 1019.99 1020.11 1020.23 1020.31 1020.34 1020.32 1020.22 1020.04 1019.78 1019.44 1019.02 1018.55 1018.05 1017.53
1001.60 1002.35 1003.17 1004.04 1004.94 1005.83 1006.72 1007.59 1008.46 1009.31 1010.15 1010.99 1011.84 1012.69 1013.53 1014.36 1015.16 1015.93 1016.64 1017.28 1017.84 1018.33 1018.73 1019.06 1019.32 1019.53 1019.71 1019.85 1019.99 1020.11 1020.23 1020.34 1020.43 1020.48 1020.49 1020.43 1020.30 1020.09 1019.80 1019.43 1019.00 1018.52 1018.01 1017.49
1002.21 1002.97 1003.80 1004.68 1005.59 1006.50 1007.40 1008.30 1009.17 1010.03 1010.89 1011.74 1012.58 1013.42 1014.25 1015.06 1015.84 1016.57 1017.24 1017.84 1018.36 1018.80 1019.16 1019.45 1019.69 1019.87 1020.02 1020.15 1020.27 1020.38 1020.48 1020.56 1020.62 1020.65 1020.61 1020.52 1020.34 1020.09 1019.77 1019.37 1018.93 1018.44 1017.94 1017.43
1002.96 1003.70 1004.52 1005.39 1006.29 1007.20 1008.11 1009.01 1009.90 1010.77 1011.63 1012.48 1013.32 1014.15 1014.96 1015.74 1016.47 1017.16 1017.78 1018.33 1018.81 1019.21 1019.53 1019.79 1020.00 1020.17 1020.30 1020.42 1020.52 1020.62 1020.70 1020.75 1020.78 1020.76 1020.68 1020.54 1020.33 1020.04 1019.68 1019.27 1018.81 1018.33 1017.83 1017.33
1003.81 1004.53 1005.32 1006.17 1007.05 1007.95 1008.86 1009.76 1010.65 1011.52 1012.39 1013.24 1014.07 1014.87 1015.65 1016.39 1017.08 1017.72 1018.29 1018.79 1019.21 1019.56 1019.85 1020.08 1020.27 1020.41 1020.53 1020.64 1020.73 1020.80 1020.85 1020.87 1020.86 1020.80 1020.68 1020.49 1020.24 1019.92 1019.54 1019.11 1018.65 1018.17 1017.68 1017.20
1004.75 1005.44 1006.20 1007.02 1007.88 1008.76 1009.65 1010.54 1011.43 1012.30 1013.16 1014.01 1014.82 1015.60 1016.35 1017.04 1017.68 1018.26 1018.77 1019.21 1019.58 1019.89 1020.13 1020.33 1020.49 1020.61 1020.72 1020.80 1020.86 1020.90 1020.92 1020.91 1020.85 1020.75 1020.58 1020.36 1020.07 1019.73 1019.34 1018.91 1018.45 1017.98 1017.50 1017.03
1005.74 1006.40 1007.14 1007.92 1008.75 1009.61 1010.48 1011.36 1012.25 1013.12 1013.97 1014.80 1015.59 1016.34 1017.05 1017.70 1018.29 1018.81 1019.26 1019.64 1019.95 1020.21 1020.41 1020.56 1020.68 1020.78 1020.85 1020.90 1020.93 1020.94 1020.92 1020.86 1020.76 1020.61 1020.41 1020.16 1019.85 1019.49 1019.10 1018.67 1018.22 1017.76 1017.29 1016.81
1006.73 1007.38 1008.08 1008.84 1009.65 1010.48 1011.34 1012.21 1013.08 1013.94 1014.78 1015.60 1016.37 1017.10 1017.76 1018.37 1018.90 1019.37 1019.76 1020.08 1020.34 1020.54 1020.69 1020.80 1020.87 1020.92 1020.95 1020.96 1020.94 1020.91 1020.84 1020.74 1020.60 1020.42 1020.19 1019.91 1019.58 1019.22 1018.82 1018.40 1017.96 1017.50 1017.03 1016.54
1007.67 1008.31 1009.00 1009.74 1010.52 1011.34 1012.18 1013.04 1013.90 1014.75 1015.58 1016.38 1017.14 1017.84 1018.47 1019.04 1019.53 1019.94 1020.28 1020.55 1020.75 1020.89 1020.99 1021.04 1021.07 1021.06 1021.04 1021.00 1020.93 1020.84 1020.73 1020.58 1020.40 1020.18 1019.92 1019.62 1019.28 1018.92 1018.52 1018.10 1017.66 1017.20 1016.71 1016.20
1008.51 1009.15 1009.84 1010.57 1011.34 1012.14 1012.97 1013.82 1014.67 1015.51 1016.34 1017.12 1017.86 1018.54 1019.15 1019.69 1020.14 1020.52 1020.81 1021.03 1021.18 1021.27 1021.31 1021.31 1021.27 1021.21 1021.13 1021.03 1020.90 1020.76 1020.59 1020.39 1020.17 1019.91 1019.62 1019.30 1018.95 1018.57 1018.17 1017.74 1017.29 1016.80 1016.29 1015.74
Thickness
5495 5496 5487 5487 5488 5487 5486 5494 5497 5518 5527 5541 5546 5555 5566 5577 5584 5588 5592 5593 5592 5589 5585 5581 5577 5572 5568 5564 5561 5557 5550 5542 5534 5528 5522 5517 5511 5506 5501 5495 5488 5480 5473 5467
5505 5506 5501 5500 5502 5500 5502 5507 5512 5520 5533 5547 5551 5559 5569 5578 5586 5590 5592 5592 5589 5584 5579 5575 5570 5565 5560 5557 5552 5548 5541 5532 5525 5519 5513 5507 5502 5496 5490 5482 5475 5468 5462 5455
5517 5520 5517 5524 5531 5526 5524 5527 5525 5528 5547 5555 5559 5566 5569 5578 5588 5592 5592 5590 5586 5581 5576 5569 5564 5560 5555 5549 5544 5538 5530 5522 5516 5510 5504 5498 5492 5485 5478 5470 5463 5457 5450 5443
5520 5529 5542 5552 5556 5553 5545 5543 5544 5551 5559 5562 5567 5567 5563 5567 5585 5591 5592 5589 5583 5576 5568 5561 5557 5552 5547 5541 5535 5528 5520 5513 5507 5501 5494 5487 5480 5473 5466 5459 5453 5445 5438 5431
5529 5545 5553 5560 5562 5560 5556 5557 5563 5564 5569 5570 5566 5572 5576 5568 5581 5590 5589 5585 5578 5570 5563 5556 5551 5546 5540 5531 5524 5517 5510 5503 5497 5491 5483 5476 5469 5461 5455 5448 5441 5433 5426 5419
5532 5546 5556 5566 5571 5573 5571 5572 5584 5583 5582 5578 5573 5583 5586 5565 5574 5579 5579 5575 5567 5560 5553 5547 5542 5539 5532 5522 5514 5507 5500 5493 5486 5480 5473 5465 5457 5451 5444 5437 5429 5422 5415 5407
5534 5544 5555 5570 5574 5576 5573 5584 5592 5594 5591 5582 5580 5576 5561 5557 5561 5564 5564 5561 5557 5551 5544 5538 5534 5530 5521 5512 5503 5496 5489 5482 5475 5468 5461 5453 5446 5440 5433 5426 5418 5410 5403 5395
5536 5544 5560 5577 5574 5576 5584 5586 5587 5591 5586 5573 5556 5550 5549 5550 5551 5551 5550 5547 5544 5539 5531 5526 5523 5519 5509 5498 5490 5485 5478 5470 5462 5456 5450 5443 5436 5429 5422 5414 5405 5397 5389 5382
5548 5561 5572 5574 5578 5582 5581 5583 5582 5577 5572 5565 5554 5546 5543 5540 5539 5538 5536 5534 5531 5527 5520 5513 5510 5508 5497 5485 5479 5473 5465 5457 5450 5444 5438 5432 5426 5418 5410 5401 5392 5385 5377 5371
5553 5563 5570 5576 5579 5578 5574 5574 5570 5569 5567 5564 5553 5543 5537 5533 5529 5526 5524 5522 5520 5516 5508 5499 5494 5490 5483 5475 5469 5462 5453 5446 5440 5433 5427 5420 5413 5407 5398 5389 5381 5374 5367 5362
5556 5566 5572 5578 5577 5569 5560 5560 5561 5560 5559 5555 5549 5539 5533 5526 5521 5518 5515 5511 5509 5504 5495 5486 5481 5475 5470 5464 5459 5451 5443 5436 5429 5423 5415 5408 5401 5394 5387 5379 5371 5366 5358 5347
5563 5572 5571 5575 5568 5558 5556 5555 5554 5553 5547 5542 5541 5533 5526 5519 5513 5509 5504 5499 5494 5488 5482 5474 5469 5463 5458 5453 5448 5441 5433 5425 5418 5411 5404 5397 5389 5382 5377 5370 5362 5354 5344 5333
5567 5566 5562 5560 5555 5554 5550 5548 5547 5545 5542 5535 5528 5525 5519 5510 5503 5498 5493 5489 5483 5477 5470 5464 5458 5452 5447 5442 5438 5431 5424 5416 5408 5401 5394 5387 5379 5372 5364 5357 5347 5337 5327 5315
5556 5555 5555 5553 5550 5547 5544 5540 5537 5533 5529 5525 5519 5514 5509 5501 5494 5489 5482 5477 5472 5466 5459 5454 5448 5440 5436 5432 5427 5420 5412 5406 5398 5389 5382 5375 5368 5360 5351 5343 5334 5323 5311 5299
5552 5557 5554 5546 5539 5536 5534 5532 5528 5522 5517 5511 5508 5505 5500 5493 5485 5477 5471 5467 5462 5455 5448 5443 5437 5430 5426 5421 5416 5408 5400 5393 5386 5379 5371 5364 5356 5347 5338 5328 5318 5307 5296 5285
5539 5539 5538 5537 5533 5529 5528 5527 5523 5513 5508 5503 5498 5492 5487 5481 5473 5466 5461 5458 5452 5445 5438 5433 5426 5420 5416 5410 5402 5395 5388 5384 5376 5368 5360 5352 5343 5334 5324 5313 5302 5291 5279 5270
5535 5529 5528 5526 5526 5525 5524 5524 5520 5511 5502 5495 5487 5482 5476 5470 5463 5456 5450 5446 5441 5434 5428 5423 5416 5410 5404 5397 5390 5383 5377 5370 5365 5356 5348 5339 5330 5321 5310 5299 5287 5275 5263 5253
5549 5547 5544 5542 5535 5526 5519 5514 5509 5502 5494 5486 5480 5475 5470 5464 5455 5445 5438 5433 5427 5421 5415 5410 5404 5398 5391 5386 5379 5373 5366 5359 5352 5343 5335 5326 5318 5307 5295 5284 5273 5261 5251 5242
5542 5539 5536 5532 5528 5523 5514 5506 5498 5491 5484 5479 5474 5466 5458 5450 5442 5434 5428 5423 5417 5409 5402 5399 5394 5386 5381 5376 5370 5363 5355 5347 5340 5331 5322 5313 5303 5291 5281 5270 5258 5247 5240 5234
5532 5529 5526 5520 5516 5511 5504 5495 5488 5481 5475 5469 5462 5453 5444 5435 5429 5423 5417 5410 5404 5399 5393 5389 5382 5377 5371 5366 5360 5352 5344 5336 5327 5318 5308 5298 5288 5277 5265 5254 5244 5236 5230 5226
5520 5516 5513 5508 5501 5495 5491 5486 5480 5471 5462 5457 5452 5442 5432 5423 5418 5413 5408 5398 5392 5389 5385 5380 5373 5367 5361 5356 5349 5341 5333 5324 5315 5305 5294 5284 5273 5262 5250 5239 5231 5226 5222 5220
5506 5503 5499 5494 5488 5480 5475 5472 5468 5460 5451 5443 5436 5429 5421 5413 5406 5401 5395 5389 5384 5381 5375 5369 5364 5359 5352 5345 5338 5330 5322 5313 5302 5292 5281 5270 5259 5247 5236 5226 5219 5215 5214 5214
5495 5491 5486 5482 5476 5469 5462 5457 5453 5447 5439 5432 5425 5419 5412 5404 5399 5394 5385 5379 5377 5373 5366 5361 5357 5351 5343 5334 5327 5319 5310 5300 5289 5279 5268 5256 5244 5233 5222 5214 5209 5208 5208 5210
5483 5479 5473 5468 5464 5458 5447 5439 5436 5431 5425 5419 5413 5408 5403 5395 5387 5383 5380 5375 5370 5363 5357 5353 5348 5340 5332 5323 5316 5307 5297 5287 5277 5266 5254 5241 5229 5218 5210 5205 5203 5203 5205 5210
5470 5465 5462 5458 5453 5443 5431 5425 5420 5415 5410 5404 5398 5394 5390 5387 5381 5374 5370 5365 5360 5352 5345 5341 5336 5330 5321 5313 5304 5295 5285 5275 5265 5254 5240 5227 5216 5208 5202 5198 5198 5200 5205 5212
5457 5454 5451 5446 5440 5432 5426 5421 5413 5406 5400 5393 5385 5380 5377 5374 5369 5364 5359 5353 5348 5342 5335 5329 5323 5317 5309 5301 5293 5284 5274 5264 5252 5238 5227 5217 5208 5201 5197 5195 5197 5202 5208 5216
5441 5438 5433 5427 5423 5419 5415 5410 5404 5397 5392 5386 5377 5370 5367 5363 5358 5352 5346 5341 5336 5331 5325 5319 5313 5306 5299 5291 5282 5273 5264 5253 5240 5228 5217 5209 5202 5197 5196 5197 5201 5207 5215 5223